When you browse on this site, cookies collect data to enhance your experience and personalize the content and advertising you see.
Visit our Privacy Policy to learn more. By continuing to use the site, you agree to this use of cookies and data.
  • In Portugal
  • List of Countries
  • For 7 days
  • Water Temperature
  • Satellite Maps
  • Weather Map
  • Weather Widgets
  • user-avatar
    Login

    Hourly Weather Koryzhi

    Today, 22 April, Monday

    Time Temperature Precipitation Wind Pressure Humidity
    00:00 +8°C° 0 mm 1 mps 763 mmHg 66%
    01:00 +7°C° 0 mm 1 mps 763 mmHg 67%
    02:00 +7°C° 0 mm 1 mps 764 mmHg 68%
    03:00 +7°C° 0 mm 1 mps 764 mmHg 69%
    04:00 +7°C° 0 mm 1 mps 764 mmHg 70%
    05:00 +6°C° 0 mm 1 mps 764 mmHg 72%
    06:00 +8°C° 0 mm 1 mps 764 mmHg 67%
    07:00 +10°C° 0 mm 1 mps 764 mmHg 62%
    08:00 +12°C° 0 mm 1 mps 765 mmHg 57%
    09:00 +14°C° 0 mm 2 mps 765 mmHg 50%
    10:00 +16°C° 0 mm 2 mps 765 mmHg 43%
    11:00 +18°C° 0 mm 2 mps 765 mmHg 35%
    12:00 +18°C° 0 mm 2 mps 765 mmHg 34%
    13:00 +19°C° 0 mm 3 mps 765 mmHg 33%
    14:00 +19°C° 0 mm 3 mps 764 mmHg 31%
    15:00 +19°C° 0 mm 2 mps 764 mmHg 32%
    16:00 +19°C° 0 mm 2 mps 764 mmHg 34%
    17:00 +18°C° 0 mm 2 mps 764 mmHg 35%
    18:00 +16°C° 0 mm 2 mps 764 mmHg 41%
    19:00 +14°C° 0 mm 2 mps 764 mmHg 48%
    20:00 +13°C° 0 mm 2 mps 765 mmHg 54%
    21:00 +12°C° 0 mm 2 mps 765 mmHg 56%
    22:00 +10°C° 0 mm 2 mps 765 mmHg 58%
    23:00 +9°C° 0 mm 2 mps 766 mmHg 60%

    Tomorrow, 23 April, Tuesday

    Time Temperature Precipitation Wind Pressure Humidity
    00:00 +9°C° 0 mm 2 mps 766 mmHg 62%
    01:00 +8°C° 0 mm 2 mps 766 mmHg 63%
    02:00 +8°C° 0 mm 2 mps 766 mmHg 65%
    03:00 +8°C° 0 mm 2 mps 766 mmHg 67%
    04:00 +8°C° 0 mm 1 mps 766 mmHg 68%
    05:00 +8°C° 0 mm 1 mps 767 mmHg 69%
    06:00 +10°C° 0 mm 1 mps 767 mmHg 64%
    07:00 +12°C° 0 mm 1 mps 767 mmHg 58%
    08:00 +14°C° 0 mm 1 mps 767 mmHg 53%
    09:00 +15°C° 0 mm 1 mps 767 mmHg 47%
    10:00 +17°C° 0 mm 2 mps 767 mmHg 41%
    11:00 +18°C° 0 mm 2 mps 767 mmHg 35%
    12:00 +19°C° 0 mm 2 mps 767 mmHg 33%
    13:00 +19°C° 0 mm 2 mps 766 mmHg 32%
    14:00 +20°C° 0 mm 2 mps 766 mmHg 30%
    15:00 +21°C° 0 mm 1 mps 766 mmHg 30%
    16:00 +20°C° 0 mm 1 mps 766 mmHg 31%
    17:00 +20°C° 0 mm 1 mps 765 mmHg 31%
    18:00 +18°C° 0 mm 1 mps 765 mmHg 36%
    19:00 +15°C° 0 mm 1 mps 766 mmHg 41%
    20:00 +13°C° 0 mm 1 mps 766 mmHg 46%
    21:00 +13°C° 0 mm 1 mps 766 mmHg 48%
    22:00 +12°C° 0 mm 1 mps 766 mmHg 51%
    23:00 +11°C° 0 mm 1 mps 766 mmHg 53%

    Day after tomorrow, 24 April, Wednesday

    Time Temperature Precipitation Wind Pressure Humidity
    00:00 +11°C° 0 mm 1 mps 766 mmHg 56%
    01:00 +10°C° 0 mm 1 mps 766 mmHg 58%
    02:00 +10°C° 0 mm 1 mps 766 mmHg 60%
    03:00 +9°C° 0 mm 1 mps 766 mmHg 61%
    04:00 +8°C° 0 mm 0 mps 767 mmHg 63%
    05:00 +8°C° 0 mm 0 mps 767 mmHg 64%
    06:00 +10°C° 0 mm 0 mps 767 mmHg 58%
    07:00 +13°C° 0 mm 1 mps 767 mmHg 53%
    08:00 +15°C° 0 mm 1 mps 767 mmHg 47%
    09:00 +18°C° 0 mm 1 mps 767 mmHg 43%
    10:00 +19°C° 0 mm 1 mps 766 mmHg 38%
    11:00 +20°C° 0 mm 2 mps 766 mmHg 33%
    12:00 +20°C° 0 mm 2 mps 766 mmHg 33%
    13:00 +21°C° 0 mm 2 mps 766 mmHg 32%
    14:00 +21°C° 0 mm 2 mps 765 mmHg 31%
    15:00 +21°C° 0 mm 2 mps 765 mmHg 32%
    16:00 +21°C° 0 mm 2 mps 765 mmHg 33%
    17:00 +21°C° 0 mm 2 mps 764 mmHg 34%
    18:00 +19°C° 0 mm 2 mps 764 mmHg 40%
    19:00 +18°C° 0 mm 1 mps 764 mmHg 46%
    20:00 +15°C° 0 mm 1 mps 764 mmHg 53%
    21:00 +14°C° 0 mm 1 mps 764 mmHg 55%
    22:00 +13°C° 0 mm 1 mps 765 mmHg 57%
    23:00 +12°C° 0 mm 1 mps 765 mmHg 59%

    25 April, Thursday

    Time Temperature Precipitation Wind Pressure Humidity
    00:00 +12°C° 0 mm 1 mps 765 mmHg 61%
    01:00 +11°C° 0 mm 1 mps 765 mmHg 62%
    02:00 +11°C° 0 mm 1 mps 765 mmHg 64%
    03:00 +11°C° 0 mm 1 mps 765 mmHg 65%
    04:00 +10°C° 0 mm 1 mps 765 mmHg 67%
    05:00 +10°C° 0 mm 1 mps 765 mmHg 68%
    06:00 +12°C° 0 mm 2 mps 765 mmHg 63%
    07:00 +13°C° 0 mm 2 mps 764 mmHg 59%
    08:00 +15°C° 0 mm 2 mps 764 mmHg 54%
    09:00 +17°C° 0 mm 3 mps 764 mmHg 48%
    10:00 +18°C° 0 mm 3 mps 764 mmHg 42%
    11:00 +20°C° 0 mm 4 mps 764 mmHg 36%
    12:00 +21°C° 0 mm 4 mps 763 mmHg 35%
    13:00 +21°C° 0 mm 4 mps 763 mmHg 35%
    14:00 +21°C° 0 mm 4 mps 763 mmHg 34%
    15:00 +21°C° 0 mm 4 mps 762 mmHg 35%
    16:00 +21°C° 0 mm 3 mps 762 mmHg 36%
    17:00 +21°C° 0 mm 3 mps 762 mmHg 37%
    18:00 +19°C° 0 mm 3 mps 761 mmHg 43%
    19:00 +17°C° 0 mm 2 mps 761 mmHg 50%
    20:00 +15°C° 0 mm 2 mps 761 mmHg 56%
    21:00 +14°C° 0 mm 2 mps 761 mmHg 59%
    22:00 +14°C° 0 mm 2 mps 761 mmHg 61%
    23:00 +13°C° 0 mm 2 mps 761 mmHg 63%

    26 April, Friday

    Time Temperature Precipitation Wind Pressure Humidity
    00:00 +12°C° 0 mm 2 mps 761 mmHg 65%
    01:00 +12°C° 0 mm 2 mps 760 mmHg 67%
    02:00 +12°C° 0 mm 2 mps 760 mmHg 69%
    03:00 +10°C° 0 mm 2 mps 760 mmHg 71%
    04:00 +10°C° 0 mm 2 mps 760 mmHg 73%
    05:00 +9°C° 0 mm 2 mps 759 mmHg 76%
    06:00 +12°C° 0 mm 2 mps 759 mmHg 70%
    07:00 +13°C° 0 mm 3 mps 759 mmHg 65%
    08:00 +14°C° 0 mm 3 mps 758 mmHg 59%
    09:00 +17°C° 0 mm 3 mps 758 mmHg 54%
    10:00 +19°C° 0 mm 3 mps 758 mmHg 49%
    11:00 +21°C° 0 mm 4 mps 757 mmHg 44%
    12:00 +21°C° 0 mm 3 mps 757 mmHg 43%
    13:00 +22°C° 0 mm 3 mps 757 mmHg 42%
    14:00 +24°C° 0 mm 3 mps 756 mmHg 40%
    15:00 +24°C° 0 mm 3 mps 756 mmHg 41%
    16:00 +24°C° 0 mm 2 mps 756 mmHg 42%
    17:00 +24°C° 0 mm 2 mps 755 mmHg 43%
    18:00 +21°C° 0 mm 2 mps 755 mmHg 50%
    19:00 +19°C° 0 mm 2 mps 755 mmHg 57%
    20:00 +18°C° 0 mm 1 mps 755 mmHg 64%
    21:00 +16°C° 0 mm 1 mps 755 mmHg 66%
    22:00 +15°C° 0 mm 1 mps 755 mmHg 69%
    23:00 +15°C° 0 mm 2 mps 755 mmHg 72%

    27 April, Saturday

    Time Temperature Precipitation Wind Pressure Humidity
    00:00 +14°C° 0 mm 2 mps 755 mmHg 74%
    01:00 +14°C° 0 mm 2 mps 755 mmHg 76%
    02:00 +13°C° 0 mm 2 mps 755 mmHg 78%
    03:00 +13°C° 0 mm 2 mps 755 mmHg 78%
    04:00 +13°C° 0 mm 2 mps 755 mmHg 77%
    05:00 +13°C° 0 mm 2 mps 755 mmHg 76%
    06:00 +14°C° 0.1 mm 2 mps 754 mmHg 71%
    07:00 +16°C° 0.1 mm 2 mps 754 mmHg 66%
    08:00 +17°C° 0.1 mm 3 mps 754 mmHg 61%
    09:00 +18°C° 0.6 mm 3 mps 754 mmHg 63%
    10:00 +18°C° 0.6 mm 3 mps 754 mmHg 65%
    11:00 +19°C° 0.6 mm 3 mps 754 mmHg 67%
    12:00 +19°C° 0.4 mm 3 mps 754 mmHg 69%
    13:00 +19°C° 0.4 mm 3 mps 753 mmHg 71%
    14:00 +19°C° 0.4 mm 3 mps 753 mmHg 73%
    15:00 +20°C° 0 mm 3 mps 753 mmHg 70%
    16:00 +20°C° 0 mm 3 mps 752 mmHg 67%
    17:00 +21°C° 0 mm 2 mps 752 mmHg 64%
    18:00 +20°C° 0.2 mm 3 mps 752 mmHg 71%
    19:00 +19°C° 0.2 mm 3 mps 752 mmHg 77%
    20:00 +17°C° 0.2 mm 3 mps 752 mmHg 83%
    21:00 +17°C° 0.5 mm 3 mps 752 mmHg 87%
    22:00 +16°C° 0.5 mm 3 mps 752 mmHg 91%
    23:00 +16°C° 0.5 mm 3 mps 752 mmHg 95%
    Show more